TimeCDT,TemperatureF,Dew PointF,Humidity,Sea Level PressureIn,VisibilityMPH,Wind Direction,Wind SpeedMPH,Gust SpeedMPH,PrecipitationIn,Events,Conditions,WindDirDegrees,DateUTC
12:14 AM,60.8,51.8,72,29.69,10.0,ESE,8.1,-,N/A,Rain,Light Rain,120,2011-10-12 05:14:00
12:34 AM,60.8,53.6,77,29.68,10.0,ESE,6.9,-,N/A,Rain-Thunderstorm,Light Thunderstorms and Rain,110,2011-10-12 05:34:00
12:54 AM,59.0,53.6,82,29.68,10.0,East,5.8,-,N/A,Thunderstorm,Thunderstorm,100,2011-10-12 05:54:00
1:14 AM,57.2,53.6,88,29.68,10.0,ESE,5.8,-,N/A,Thunderstorm,Mostly Cloudy,110,2011-10-12 06:14:00
1:35 AM,57.2,51.8,82,29.68,10.0,ESE,4.6,-,N/A,,Scattered Clouds,120,2011-10-12 06:35:00
1:55 AM,57.2,51.8,82,29.68,10.0,SE,3.5,-,N/A,,Clear,140,2011-10-12 06:55:00
2:35 AM,57.2,51.8,82,29.68,10.0,Calm,Calm,-,N/A,,Clear,0,2011-10-12 07:35:00
3:15 AM,55.4,51.8,88,29.69,10.0,South,3.5,-,N/A,,Scattered Clouds,190,2011-10-12 08:15:00
3:35 AM,57.2,51.8,82,29.71,10.0,South,8.1,-,N/A,,Mostly Cloudy,170,2011-10-12 08:35:00
3:55 AM,57.2,51.8,82,29.70,10.0,South,5.8,-,0.01,Rain,Light Rain,190,2011-10-12 08:55:00
4:14 AM,57.2,53.6,88,29.69,10.0,South,6.9,-,N/A,Rain,Light Rain,190,2011-10-12 09:14:00
4:35 AM,57.2,53.6,88,29.68,10.0,SSW,4.6,-,N/A,Rain,Rain,200,2011-10-12 09:35:00
4:55 AM,57.2,53.6,88,29.69,10.0,SSW,8.1,-,N/A,Rain,Light Rain,200,2011-10-12 09:55:00
5:15 AM,57.2,53.6,88,29.69,10.0,SSE,5.8,-,0.01,Rain,Light Rain,160,2011-10-12 10:15:00
5:35 AM,57.2,53.6,88,29.69,10.0,South,5.8,-,0.01,Rain,Light Rain,170,2011-10-12 10:35:00
5:55 AM,57.2,53.6,88,29.69,10.0,South,4.6,-,0.01,Rain,Light Rain,190,2011-10-12 10:55:00
6:15 AM,57.2,53.6,88,29.69,10.0,South,4.6,-,N/A,,Mostly Cloudy,190,2011-10-12 11:15:00
6:35 AM,57.2,53.6,88,29.69,10.0,South,6.9,-,N/A,Rain,Light Rain,180,2011-10-12 11:35:00
6:55 AM,57.2,53.6,88,29.70,10.0,South,4.6,-,N/A,,Overcast,170,2011-10-12 11:55:00
7:15 AM,57.2,53.6,88,29.70,10.0,South,9.2,-,0.04,Rain,Rain,180,2011-10-12 12:15:00
7:34 AM,57.2,53.6,88,29.70,10.0,South,5.8,-,0.05,Rain,Rain,190,2011-10-12 12:34:00
7:54 AM,57.2,53.6,88,29.71,10.0,South,4.6,-,0.07,Rain,Rain,190,2011-10-12 12:54:00
8:14 AM,55.4,53.6,94,29.71,10.0,Calm,Calm,-,0.02,Rain,Rain,0,2011-10-12 13:14:00
8:35 AM,57.2,55.4,94,29.72,10.0,Calm,Calm,-,0.03,Rain,Light Rain,0,2011-10-12 13:35:00
8:54 AM,57.2,55.4,94,29.71,10.0,Calm,Calm,-,0.03,,Mostly Cloudy,0,2011-10-12 13:54:00
9:14 AM,57.2,55.4,94,29.71,10.0,ESE,3.5,-,N/A,,Scattered Clouds,110,2011-10-12 14:14:00
9:35 AM,57.2,55.4,94,29.71,10.0,Calm,Calm,-,N/A,,Clear,0,2011-10-12 14:35:00
10:14 AM,57.2,55.4,94,29.71,10.0,Calm,Calm,-,N/A,Rain,Light Rain,0,2011-10-12 15:14:00
10:35 AM,57.2,55.4,94,29.72,10.0,Calm,Calm,-,N/A,Rain,Light Rain,0,2011-10-12 15:35:00
10:55 AM,57.2,55.4,94,29.72,10.0,Calm,Calm,-,N/A,Rain,Light Rain,0,2011-10-12 15:55:00
11:15 AM,57.2,55.4,94,29.73,10.0,SE,3.5,-,N/A,Rain,Light Rain,130,2011-10-12 16:15:00
11:35 AM,57.2,55.4,94,29.72,10.0,SSE,4.6,-,0.02,Rain,Rain,160,2011-10-12 16:35:00
11:54 AM,57.2,55.4,94,29.71,10.0,SSE,6.9,-,0.04,Rain,Light Rain,160,2011-10-12 16:54:00
12:15 PM,57.2,55.4,94,29.71,10.0,South,3.5,-,N/A,,Scattered Clouds,170,2011-10-12 17:15:00
12:35 PM,57.2,55.4,94,29.71,10.0,South,4.6,-,N/A,,Clear,170,2011-10-12 17:35:00
12:55 PM,59.0,57.2,94,29.71,10.0,South,3.5,-,N/A,,Clear,190,2011-10-12 17:55:00
1:14 PM,60.8,57.2,88,29.71,10.0,South,3.5,-,N/A,,Clear,170,2011-10-12 18:14:00
1:35 PM,60.8,57.2,88,29.70,10.0,South,3.5,-,N/A,,Clear,170,2011-10-12 18:35:00
1:55 PM,62.6,59.0,88,29.69,10.0,South,5.8,-,N/A,,Clear,170,2011-10-12 18:55:00
2:14 PM,64.4,59.0,83,29.69,10.0,SSE,5.8,-,N/A,,Scattered Clouds,150,2011-10-12 19:14:00
2:35 PM,64.4,55.4,73,29.69,10.0,South,6.9,-,N/A,,Scattered Clouds,170,2011-10-12 19:35:00
2:55 PM,64.4,53.6,68,29.68,10.0,SSE,5.8,-,N/A,,Mostly Cloudy,160,2011-10-12 19:55:00
3:14 PM,62.6,53.6,72,29.68,10.0,South,8.1,-,N/A,Thunderstorm,Overcast,170,2011-10-12 20:14:00
3:34 PM,60.8,51.8,72,29.69,10.0,SE,3.5,-,N/A,,Light Drizzle,140,2011-10-12 20:34:00
4:14 PM,62.6,53.6,72,29.69,10.0,SSE,5.8,-,N/A,Thunderstorm,Scattered Clouds,160,2011-10-12 21:14:00
4:34 PM,62.6,55.4,77,29.69,10.0,SSE,4.6,-,N/A,,Clear,160,2011-10-12 21:34:00
4:55 PM,62.6,55.4,77,29.69,10.0,South,4.6,-,N/A,,Scattered Clouds,180,2011-10-12 21:55:00
5:15 PM,62.6,55.4,77,29.69,10.0,South,3.5,-,N/A,,Scattered Clouds,180,2011-10-12 22:15:00
5:35 PM,62.6,53.6,72,29.69,10.0,South,3.5,-,N/A,,Mostly Cloudy,180,2011-10-12 22:35:00
5:54 PM,62.6,53.6,72,29.69,10.0,SSE,5.8,-,N/A,,Scattered Clouds,160,2011-10-12 22:54:00
6:14 PM,60.8,53.6,77,29.70,10.0,SSW,3.5,-,N/A,,Clear,200,2011-10-12 23:14:00
6:34 PM,60.8,53.6,77,29.70,10.0,SSW,3.5,-,N/A,,Clear,200,2011-10-12 23:34:00
6:55 PM,59.0,53.6,82,29.71,10.0,Calm,Calm,-,N/A,,Clear,0,2011-10-12 23:55:00
7:14 PM,57.2,51.8,82,29.71,10.0,Calm,Calm,-,N/A,,Clear,0,2011-10-13 00:14:00
7:34 PM,57.2,51.8,82,29.71,10.0,SW,4.6,-,N/A,,Clear,220,2011-10-13 00:34:00
7:55 PM,57.2,51.8,82,29.71,10.0,SSW,5.8,-,N/A,,Clear,210,2011-10-13 00:55:00
8:14 PM,57.2,53.6,88,29.71,10.0,SW,4.6,-,N/A,,Scattered Clouds,220,2011-10-13 01:14:00
8:34 PM,55.4,51.8,88,29.71,10.0,WSW,5.8,-,N/A,,Scattered Clouds,240,2011-10-13 01:34:00
8:54 PM,53.6,51.8,94,29.71,10.0,West,6.9,-,N/A,,Clear,260,2011-10-13 01:54:00
9:14 PM,53.6,51.8,94,29.71,10.0,West,6.9,-,N/A,,Clear,260,2011-10-13 02:14:00
9:35 PM,53.6,51.8,94,29.71,10.0,West,6.9,-,N/A,,Clear,270,2011-10-13 02:35:00
9:54 PM,51.8,48.2,88,29.71,10.0,West,5.8,-,N/A,,Clear,280,2011-10-13 02:54:00
10:14 PM,53.6,48.2,82,29.71,10.0,West,6.9,-,N/A,,Clear,280,2011-10-13 03:14:00
10:34 PM,51.8,48.2,88,29.71,10.0,WNW,8.1,-,N/A,,Clear,290,2011-10-13 03:34:00
10:54 PM,51.8,48.2,88,29.71,10.0,WNW,6.9,-,N/A,,Clear,290,2011-10-13 03:54:00
11:15 PM,51.8,46.4,82,29.71,10.0,WNW,8.1,-,N/A,,Clear,290,2011-10-13 04:15:00
11:34 PM,51.8,46.4,82,29.71,10.0,WNW,6.9,-,N/A,,Clear,290,2011-10-13 04:34:00
11:54 PM,51.8,46.4,82,29.71,10.0,WNW,6.9,-,N/A,,Clear,290,2011-10-13 04:54:00